Date,TemperatureHighF,TemperatureAvgF,TemperatureLowF,DewpointHighF,DewpointAvgF,DewpointLowF,HumidityHigh,HumidityAvg,HumidityLow,PressureMaxIn,PressureMinIn,WindSpeedMaxMPH,WindSpeedAvgMPH,GustSpeedMaxMPH,PrecipitationSumIn
2013-2-1,19,12,6,9,4,-1,73,68,60,30.41,30.13,10,2,17,0.00
2013-2-2,30,24,17,24,18,9,83,78,70,30.28,30.00,9,1,13,0.00
2013-2-3,27,20,13,20,14,7,79,76,70,30.11,29.98,8,1,13,0.00
2013-2-4,39,30,20,32,23,14,80,75,65,30.10,29.81,6,1,12,0.00
2013-2-5,37,31,23,30,25,18,84,78,72,30.05,29.84,8,1,14,0.00
2013-2-6,39,32,30,28,25,22,82,73,60,30.27,30.05,8,0,12,0.00
2013-2-7,52,40,29,40,32,24,87,74,57,30.20,29.82,5,0,14,0.14
2013-2-8,43,34,30,39,28,23,88,80,71,30.36,29.84,13,4,23,0.14
2013-2-9,39,32,21,28,23,16,84,71,60,30.42,30.18,7,1,14,0.00
2013-2-10,50,42,32,47,35,24,89,75,62,30.18,29.72,13,3,20,0.04
2013-2-11,50,41,31,47,32,25,89,70,61,30.06,29.71,12,3,22,0.00
2013-2-12,45,34,28,31,26,23,81,73,56,30.14,29.96,8,0,14,0.00
2013-2-13,45,35,28,30,26,23,84,72,54,29.97,29.79,3,0,14,0.00
2013-2-14,50,40,34,38,33,27,87,75,60,30.02,29.81,8,2,17,0.00
2013-2-15,38,31,21,31,25,15,85,78,70,30.18,30.00,9,1,14,0.00
2013-2-16,28,23,20,18,14,10,81,69,55,30.15,30.10,9,2,15,0.00
2013-2-17,32,23,9,17,11,4,80,62,42,30.25,30.14,6,0,9,0.00
2013-2-18,60,42,25,42,29,13,85,61,45,30.15,29.60,15,5,32,0.10
2013-2-19,46,28,22,42,20,12,88,73,64,30.14,29.59,13,5,26,0.14
2013-2-20,28,21,13,16,12,6,71,66,57,30.33,30.14,14,3,18,0.00
2013-2-21,32,26,18,24,18,10,85,74,64,30.35,30.03,8,2,19,0.00
2013-2-22,37,33,28,33,30,24,91,87,82,30.04,29.86,6,0,14,0.16
2013-2-23,38,31,25,28,23,20,84,73,61,30.01,29.94,6,1,11,0.00
2013-2-24,41,31,21,28,23,16,84,72,59,30.16,29.99,7,1,14,0.00
2013-2-25,45,34,21,30,25,17,85,70,54,30.18,29.90,9,1,14,0.00
2013-2-26,41,37,33,39,32,27,92,85,71,29.90,29.42,12,2,29,0.71
2013-2-27,41,35,32,39,32,28,92,88,83,29.72,29.50,8,1,15,0.02
2013-2-28,39,34,32,34,31,28,90,86,80,30.00,29.70,10,2,15,0.02